Miscellaneous Local Product
Issued by NWS North Platte, NE

Home | Current Version | Previous Version | Text Only | Print | Product List | Glossary Off
Versions: 1 2 3 4 5 6 7 8 9 10 11 12 13 14 15 16 17 18 19 20 21 22 23 24 25 26 27 28 29 30 31 32 33 34 35 36 37 38 39 40 41 42 43 44 45 46 47 48 49 50

000
AXUS43 KLBF 030010
MISLBF


WESTERN AND NORTH CENTRAL NEBRASKA HOURLY WEATHER ROUNDUP
NATIONAL WEATHER SERVICE NORTH PLATTE NE
600 PM CST MON MAR 02 2015

***STATIONS NOT REPORTING VARIABLES SUCH AS SKY/WEATHER OR
PRESSURE ARE PROVIDED BY THE NEBRASKA DEPARTMENT OF
ROADS...RAWS...AND APRS NETWORKS...AND ARE NOT UNDER
NATIONAL WEATHER SERVICE QUALITY CONTROL***

...OBSERVATIONS IN AND NEAR THE EASTERN PANHANDLE OF NEBRASKA...

CITY           SKY/WX    TMP DP  RH WIND       PRES   REMARKS
PINE RIDGE     CLOUDY    40  22  48 S12       29.70F WCI  33
CHADRON        CLOUDY    45  25  45 S8        29.67F
ALLIANCE       PTCLDY    32  23  69 SE18      29.70F WCI  20
SIDNEY         CLOUDY    31  24  75 S16       29.69F WCI  20
WHITECLAY        N/A     38  21  49 S16         N/A  WCI  29
LISCO            N/A     34  21  60 E13         N/A  WCI  25
BIG SPRINGS      N/A     33  26  77 SE13        N/A  WCI  24
LEWELLEN         N/A     32  21  64 S17         N/A  WCI  21
$$

...OBSERVATIONS IN NORTH CENTRAL NEBRASKA...

CITY           SKY/WX    TMP DP  RH WIND       PRES   REMARKS
VALENTINE      CLOUDY    40  20  44 S18G29    29.79F WCI  31
THEDFORD       MOCLDY    36  22  57 S18G26    29.83F WCI  25
AINSWORTH      MOCLDY    36  19  49 S16G23    29.82F WCI  26
O`NEILL        MOCLDY    38  17  41 S17G24    29.92F WCI  29
ORD            CLOUDY    35  13  40 S18G28    29.94F WCI  24
BROKEN BOW     CLOUDY    35  19  52 S20G33    29.90F WCI  24
BROWNLEE         N/A     36  17  45 S16         N/A  WCI  26
SPRINGVIEW       N/A     38  20  48 S7G18       N/A  WCI  33
ROSE             N/A     40  24  52 SE20        N/A  WCI  30
NEWPORT          N/A     38  17  43 S18         N/A  WCI  28
SARGENT          N/A     35  20  54 S6G14       N/A  WCI  30
COMSTOCK         N/A     37  19  46 S24         N/A  WCI  26
CHAMBERS         N/A     37  15  41 S15G25      N/A  WCI  28
EWING            N/A     37  19  48 S10G17      N/A  WCI  30
$$

...OBSERVATIONS IN SOUTHWEST NEBRASKA AND FAR NORTHEAST COLORADO...

CITY           SKY/WX    TMP DP  RH WIND       PRES   REMARKS
WRAY           CLOUDY    34  29  82 SE14G20   29.75F WCI  24
IMPERIAL         N/A     31  24  75 S15       29.80F WCI  20
OGALLALA       CLOUDY    32  24  72 S14G20    29.79F WCI  22
NORTH PLATTE   CLOUDY    33  21  61 S15       29.85F WCI  23
MCCOOK         CLOUDY    33  23  66 S16G23    29.88F WCI  23
LEXINGTON      CLOUDY    34  20  56 S21G26    29.91F WCI  23
PAXTON           N/A     31  24  75 SE13        N/A  WCI  21
BRADY            N/A     35  21  57 CALM        N/A
GOTHENBURG       N/A     33  20  58 S14         N/A  WCI  23
CALLAWAY         N/A     33  22  63 S24         N/A  WCI  20
$$

...NORTH PLATTE AREA...

CITY           SKY/WX    TMP DP  RH WIND       PRES   REMARKS
AIRPORT        CLOUDY    33  21  61 S15       29.85F WCI  23
DOWNTOWN         N/A     32  22  68 S9G18       N/A  WCI  24
$$

...SOME WEATHER OBSERVATIONS FROM AROUND THE REGION...

CITY           SKY/WX    TMP DP  RH WIND       PRES   REMARKS
DENVER         MOCLDY    32  24  72 N5        29.63F HAZE    WCI  27
LARAMIE        MOCLDY    41  29  62 SW15      29.56F
CHEYENNE       MOCLDY    36  23  59 S9        29.61F WCI  29
SCOTTSBLUFF    PTCLDY    42  26  53 SE21      29.66F
RAPID CITY     MOCLDY    43  26  51 N9        29.68F
PIERRE         MOCLDY    42  12  29 S16       29.79F
WINNER         MOCLDY    42  12  29 S17       29.82F
SIOUX FALLS    CLOUDY    30  19  63 SE17G24   30.04F WCI  18
OMAHA          CLOUDY    38  20  48 SE17      30.11F WCI  28
GRAND ISLAND   CLOUDY    34  15  46 S20G26    30.00F WCI  23
KANSAS CITY    CLOUDY    34  20  56 SE13      30.18F WCI  25
WICHITA        CLOUDY    33  27  78 S12       30.12S WCI  24
HAYS           CLOUDY    32  16  51 S17       29.99F WCI  21
LIBERAL        CLOUDY    34  28  80 S17       29.95F WCI  23
GOODLAND       CLOUDY    30  28  92 S29G38    29.76F FOG     WCI  15
$$



USA.gov is the U.S. government's official web portal to all federal, state and local government web resources and services.